This is the latest recevied weather packets stored in our database for station/object K7DC. If no packets are shown the sender has not sent any weather packets the latest 10 day(s).
| Time | Temp. | Humidity | Pressure | Rain* | Wind** | Luminosity | Snow |
|---|---|---|---|---|---|---|---|
| 1787943988 | 40.56° C | 22% | 1016.5 hPa | 0 mm | - | 860 W/m² | - |
| 1787943684 | 38.89° C | 22% | 1016.6 hPa | 0 mm | - | 854 W/m² | - |
| 1787943384 | 38.33° C | 23% | 1016.7 hPa | 0 mm | - | 839 W/m² | - |
| 1787943078 | 38.33° C | 23% | 1016.8 hPa | 0 mm | - | 832 W/m² | - |
| 1787942774 | 38.89° C | 23% | 1016.9 hPa | 0 mm | - | 833 W/m² | - |
| 1787942474 | 38.89° C | 23% | 1017 hPa | 0 mm | - | 838 W/m² | - |
| 1787942169 | 39.44° C | 24% | 1017 hPa | 0 mm | - | 822 W/m² | - |
| 1787941864 | 38.33° C | 23% | 1017.1 hPa | 0 mm | - | 820 W/m² | - |
| 1787941563 | 38.33° C | 23% | 1017 hPa | 0 mm | - | 821 W/m² | - |
| 1787941258 | 38.33° C | 24% | 1017.3 hPa | 0 mm | - | 812 W/m² | - |
| 1787940958 | 37.78° C | 25% | 1017.3 hPa | 0 mm | - | 820 W/m² | - |
| 1787940656 | 37.78° C | 25% | 1017.3 hPa | 0 mm | - | 805 W/m² | - |
| 1787940355 | 37.78° C | 27% | 1017.3 hPa | 0 mm | - | 779 W/m² | - |
| 1787940055 | 37.78° C | 26% | 1017.6 hPa | 0 mm | - | 772 W/m² | - |
| 1787939755 | 37.78° C | 25% | 1017.4 hPa | 0 mm | - | 780 W/m² | - |
| 1787939449 | 37.78° C | 25% | 1017.6 hPa | 0 mm | - | 750 W/m² | - |
| 1787939144 | 36.67° C | 27% | 1017.6 hPa | 0 mm | - | 685 W/m² | - |
| 1787938844 | 36.67° C | 28% | 1017.8 hPa | 0 mm | - | 734 W/m² | - |
| 1787938543 | 36.67° C | 28% | 1017.8 hPa | 0 mm | - | 642 W/m² | - |
| 1787938240 | 36.11° C | 27% | 1017.6 hPa | 0 mm | - | 569 W/m² | - |
| 1787937934 | 35.56° C | 29% | 1017.7 hPa | 0 mm | - | 635 W/m² | - |
| 1787937630 | 35° C | 33% | 1017.8 hPa | 0 mm | - | 655 W/m² | - |
| 1787937326 | 34.44° C | 33% | 1017.6 hPa | 0 mm | - | 515 W/m² | - |
| 1787937022 | 34.44° C | 34% | 1017.8 hPa | 0 mm | - | 442 W/m² | - |
| 1787936721 | 35° C | 36% | 1017.9 hPa | 0 mm | - | 366 W/m² | - |
* Rain latest hour (hover to see other rain measurements)
** Current wind speed in m/s (hover to see current wind gust speed)